Pian Rosa, Italy

8:24 PM CEST on October 22, 2017 (GMT +0200)
Pian Rosa

Weather History for LIMH - November, 2012

Change the Weather History Date:

Sunday, November 11, 2012

  Actual Average Record
Temperature  
Mean Temperature 24 °F -  
Max Temperature 27 °F 22 °F 37 °F (2015)
Min Temperature 21 °F 12 °F 1 °F (2013)
Degree Days  
Heating Degree Days 41    
Moisture  
Dew Point 17 °F    
Average Humidity 75    
Maximum Humidity 86    
Minimum Humidity 51    
Precipitation  
Precipitation 0.03 in - - ()
Sea Level Pressure  
Sea Level Pressure 29.86 in    
Wind  
Wind Speed 13 mph ()    
Max Wind Speed 22 mph    
Max Gust Speed -    
Visibility 2.3 miles    
Events Fog , Snow    
Averages and records for this station are not official NWS values.
T = Trace of Precipitation, MM = Missing Value Source: Averaged Metar Reports

Daily Weather History Graph

Daily Weather History Graph

Search for Another Location

Airport or City:

Trip Planner

Search our weather history database for the weather conditions in past years. The results will help you decide how hot, cold, wet, or windy it might be!

Date:

Astronomy

Nov. 11, 2012 Rise Set
Actual Time 7:24 AM CET 5:01 PM CET
Civil Twilight 6:52 AM CET 5:33 PM CET
Nautical Twilight 6:16 AM CET 6:09 PM CET
Astronomical Twilight 5:41 AM CET 6:44 PM CET
Moon 4:11 AM CET (11/11) 3:21 PM CET (11/11)
Length of Visible Light 10h 41m
Length of Day
9h 37m
Waning Crescent, 9% of the Moon is Illuminated
Nov 11
Waning Crescent
Nov 13
New
Nov 20
First Quarter
Nov 28
Full
Dec 6
Last Quarter

Hourly Weather History & Observations

Time (CET) Temp. Windchill Dew Point Humidity Pressure Visibility Wind Dir Wind Speed Gust Speed Precip Events Conditions
12:55 AM 21.2 °F 5.2 °F 17.6 °F 86% 29.77 in 0.1 mi South 21.9 mph - N/A Fog , Snow Light Snow
1:00 AM 22 °F - 18 °F 80%  in 0 mi South 21.9 mph - - Snow Light Snow
1:55 AM 23.0 °F 7.6 °F 19.4 °F 86% 29.80 in 0.1 mi South 21.9 mph - N/A Fog , Snow Light Snow
2:55 AM 23.0 °F 8.7 °F 19.4 °F 86% 29.77 in 0.1 mi South 18.4 mph - N/A Fog , Snow Light Snow
3:55 AM 23.0 °F 8.0 °F 19.4 °F 86% 29.74 in 0.1 mi South 20.7 mph - N/A Fog , Snow Light Snow
4:00 AM 23 °F - 19 °F 80%  in 0 mi South 20.7 mph - - Snow Light Snow
4:55 AM 23.0 °F 8.0 °F 19.4 °F 86% 29.74 in 0.1 mi South 20.7 mph - N/A Fog , Snow Light Snow
5:55 AM 23.0 °F 7.6 °F 19.4 °F 86% 29.77 in 0.1 mi South 21.9 mph - N/A Fog , Snow Light Snow
6:55 AM 23.0 °F - 19.4 °F 86% 29.74 in 0.1 mi Calm Calm - N/A Fog , Snow Light Snow
7:00 AM 23 °F - 19 °F 77%  in 0 mi Calm Calm - - Snow Light Snow
7:55 AM 23.0 °F 10.6 °F 19.4 °F 86% 29.74 in 0.1 mi SSE 13.8 mph - N/A Fog , Snow Light Snow
8:55 AM 23.0 °F 12.4 °F 19.4 °F 86% 29.74 in 0.1 mi North 10.4 mph - N/A Fog , Snow Light Snow
9:55 AM 24.8 °F 15.3 °F 19.4 °F 80% 29.77 in 0.1 mi SE 9.2 mph - N/A Fog , Snow Light Snow
10:00 AM 24 °F - 20 °F 78%  in 0 mi SE 9.2 mph - - Snow Light Snow
10:55 AM 24.8 °F 11.5 °F 21.2 °F 86% 29.77 in 0.1 mi ESE 17.3 mph - N/A Fog , Snow Light Snow
11:55 AM 24.8 °F 11.9 °F 19.4 °F 80% 29.80 in 0.1 mi SSW 16.1 mph - N/A Fog , Snow Light Snow
12:55 PM 26.6 °F 20.0 °F 19.4 °F 74% 29.83 in 0.1 mi East 5.8 mph - N/A Fog , Snow Light Snow
1:00 PM 26 °F - 20 °F 69%  in 0 mi East 5.8 mph - - Snow Light Snow
1:55 PM 26.6 °F 17.5 °F 21.2 °F 80% 29.86 in 0.3 mi SW 9.2 mph - N/A Fog , Snow Light Snow
2:55 PM 26.6 °F 16.2 °F 19.4 °F 74% 29.86 in 0.3 mi SSW 11.5 mph - N/A Fog Light Freezing Fog
4:00 PM 26 °F - 17 °F 56%  in 16 mi SSW 11.5 mph - - Fog Light Fog
4:55 PM 23.0 °F 11.7 °F 12.2 °F 63% 29.92 in 6.2 mi South 11.5 mph - N/A   Partly Cloudy
5:55 PM 23.0 °F 12.4 °F 12.2 °F 63% 29.98 in 6.2 mi South 10.4 mph - N/A   Partly Cloudy
6:55 PM 23.0 °F 10.6 °F 14.0 °F 68% 30.01 in 6.2 mi South 13.8 mph - N/A   Scattered Clouds
7:00 PM 22 °F - 13 °F 58%  in 6 mi South 13.8 mph - -   Partly Cloudy
7:55 PM 21.2 °F 7.8 °F 12.2 °F 68% 30.01 in 6.2 mi WSW 15.0 mph - N/A   Partly Cloudy
8:55 PM 21.2 °F 10.1 °F 14.0 °F 74% 30.04 in 6.2 mi South 10.4 mph - N/A   Partly Cloudy
9:55 PM 21.2 °F 12.6 °F 10.4 °F 63% 30.04 in 6.2 mi ESE 6.9 mph - N/A   Partly Cloudy
10:00 PM 21 °F - 11 °F 51%  in 6 mi ESE 6.9 mph - -   Scattered Clouds
10:55 PM 21.2 °F 13.6 °F 10.4 °F 63% 30.06 in - SSE 5.8 mph - N/A   Clear
11:55 PM 21.2 °F 14.9 °F 8.6 °F 58% 30.06 in - South 4.6 mph - N/A   Clear